| time (UTC) | temp F | wind direction | speed MPH | gust MPH | rain 1hr in | rain 24hr in | rain mn in | humidity % | barometer mb |
| 20260504000003 | 60 | 253 | 1.0 | 3.0 | 0.00 | 0.00 | 0.00 | 44 | 1014.4 |
| 20260503234501 | 62 | 262 | 2.0 | 4.0 | 0.00 | 0.00 | 0.00 | 43 | 1014.3 |
| 20260503233002 | 63 | 255 | 1.0 | 4.0 | 0.00 | 0.00 | 0.00 | 40 | 1014.2 |
| 20260503231500 | 63 | 221 | 2.0 | 6.0 | 0.00 | 0.00 | 0.00 | 40 | 1014.2 |
| 20260503230004 | 64 | 162 | 2.0 | 5.0 | 0.00 | 0.00 | 0.00 | 40 | 1014.0 |
| 20260503223000 | 64 | 231 | 2.0 | 8.0 | 0.00 | 0.00 | 0.00 | 41 | 1014.0 |
| 20260503221500 | 64 | 185 | 3.0 | 8.0 | 0.00 | 0.00 | 0.00 | 40 | 1014.0 |
| 20260503220002 | 65 | 88 | 2.0 | 6.0 | 0.00 | 0.00 | 0.00 | 38 | 1014.0 |
| 20260503214500 | 65 | 292 | 5.0 | 9.0 | 0.00 | 0.00 | 0.00 | 40 | 1014.0 |
| 20260503211500 | 66 | 8 | 3.0 | 12.0 | 0.00 | 0.00 | 0.00 | 37 | 1014.2 |
| 20260503210003 | 67 | 293 | 2.0 | 10.0 | 0.00 | 0.00 | 0.00 | 36 | 1014.2 |
| 20260503204500 | 65 | 171 | 4.0 | 12.0 | 0.00 | 0.00 | 0.00 | 39 | 1014.3 |
| 20260503203000 | 66 | 161 | 4.0 | 10.0 | 0.00 | 0.00 | 0.00 | 36 | 1014.4 |
| 20260503201500 | 65 | 225 | 3.0 | 8.0 | 0.00 | 0.00 | 0.00 | 33 | 1014.6 |
| 20260503200002 | 65 | 287 | 3.0 | 9.0 | 0.00 | 0.00 | 0.00 | 35 | 1014.8 |
| 20260503194459 | 65 | 260 | 3.0 | 8.0 | 0.00 | 0.00 | 0.00 | 34 | 1015.0 |
| 20260503192959 | 64 | 122 | 4.0 | 9.0 | 0.00 | 0.00 | 0.00 | 34 | 1015.2 |
| 20260503191500 | 64 | 340 | 2.0 | 6.0 | 0.00 | 0.00 | 0.00 | 37 | 1015.4 |
| 20260503190003 | 63 | 261 | 4.0 | 8.0 | 0.00 | 0.00 | 0.00 | 36 | 1015.4 |
| 20260503184500 | 62 | 322 | 6.0 | 16.0 | 0.00 | 0.00 | 0.00 | 34 | 1015.7 |
| 20260503183000 | 63 | 294 | 3.0 | 9.0 | 0.00 | 0.00 | 0.00 | 38 | 1015.9 |
| 20260503181459 | 62 | 281 | 3.0 | 6.0 | 0.00 | 0.00 | 0.00 | 36 | 1016.1 |
| 20260503180001 | 60 | 212 | 3.0 | 10.0 | 0.00 | 0.00 | 0.00 | 38 | 1016.1 |
| 20260503174501 | 61 | 264 | 2.0 | 6.0 | 0.00 | 0.00 | 0.00 | 45 | 1016.3 |
| 20260503173000 | 60 | 26 | 3.0 | 9.0 | 0.00 | 0.00 | 0.00 | 42 | 1016.5 |
| 20260503171500 | 59 | 269 | 2.0 | 5.0 | 0.00 | 0.00 | 0.00 | 44 | 1016.8 |
| 20260503081458 | 40 | 119 | 0.0 | 1.0 | 0.00 | 0.00 | 0.00 | 82 | 1015.4 |
| 20260503071458 | 39 | 120 | 0.0 | 0.0 | 0.00 | 0.00 | 0.00 | 81 | 1015.0 |
| 20260503054501 | 44 | 119 | 0.0 | 1.0 | 0.00 | 0.00 | 0.00 | 73 | 1014.8 |
| 20260503053001 | 44 | 119 | 1.0 | 1.0 | 0.00 | 0.00 | 0.00 | 73 | 1014.7 |
| 20260503051501 | 45 | 129 | 0.0 | 1.0 | 0.00 | 0.00 | 0.00 | 72 | 1014.7 |
| 20260503050005 | 46 | 148 | 0.0 | 1.0 | 0.00 | 0.00 | 0.00 | 70 | 1014.8 |
| 20260503044501 | 46 | 269 | 0.0 | 1.0 | 0.00 | 0.00 | 0.00 | 69 | 1014.9 |
| 20260503041502 | 45 | 136 | 0.0 | 0.0 | 0.00 | 0.00 | 0.00 | 71 | 1014.8 |
| 20260503040004 | 44 | 204 | 0.0 | 0.0 | 0.00 | 0.00 | 0.00 | 76 | 1014.8 |
| 20260503033001 | 43 | 248 | 0.0 | 0.0 | 0.00 | 0.00 | 0.00 | 76 | 1014.5 |
| 20260503030003 | 44 | 124 | 0.0 | 0.0 | 0.00 | 0.00 | 0.00 | 70 | 1014.1 |
| 20260503024501 | 44 | 124 | 0.0 | 0.0 | 0.00 | 0.00 | 0.00 | 71 | 1014.2 |
| 20260503023001 | 44 | 124 | 0.0 | 0.0 | 0.00 | 0.00 | 0.00 | 70 | 1014.0 |
| 20260503021501 | 45 | 124 | 0.0 | 0.0 | 0.00 | 0.00 | 0.00 | 68 | 1013.9 |
| 20260503020003 | 45 | 124 | 0.0 | 1.0 | 0.00 | 0.00 | 0.00 | 67 | 1013.7 |
| 20260503014500 | 45 | 124 | 0.0 | 0.0 | 0.00 | 0.00 | 0.00 | 67 | 1013.7 |
| 20260503011500 | 48 | 124 | 0.0 | 1.0 | 0.00 | 0.00 | 0.00 | 60 | 1013.2 |
| 20260503010002 | 49 | 126 | 1.0 | 1.0 | 0.00 | 0.00 | 0.00 | 58 | 1012.9 |
| 20260503003000 | 51 | 120 | 1.0 | 3.0 | 0.00 | 0.00 | 0.00 | 54 | 1012.6 |